Theta_e
313 312 310 309 309 308 309 305 299 291 288 289 290 294 294 294 294 297 298 298 302 302 301 300 299 299 299 299 299 300 300 300 300 299 299 299 299 299
310 312 311 309 308 307 306 305 305 302 296 291 292 292 293 293 292 294 294 294 297 299 300 299 298 298 298 298 299 299 299 300 300 300 299 299 299 299
308 310 310 311 309 308 306 306 304 303 298 286 290 290 291 291 290 292 290 292 294 296 298 298 298 297 297 297 298 298 298 298 298 299 299 299 298 298
307 308 309 310 308 307 304 303 303 303 292 286 286 286 289 290 288 288 288 290 289 294 297 297 297 296 295 296 296 296 296 296 296 297 297 297 297 297
306 308 309 308 305 303 301 301 301 298 296 289 284 286 285 289 285 286 286 286 287 291 295 296 296 296 295 294 294 295 294 294 294 294 294 294 294 295
304 307 308 307 305 302 299 299 298 293 290 291 286 286 286 284 285 283 282 284 284 285 290 291 293 294 294 294 293 293 293 293 293 293 293 293 293 293
300 307 307 303 298 300 299 297 293 291 290 288 285 284 282 282 283 284 284 284 283 283 283 284 287 288 289 292 290 291 292 292 292 293 293 292 292 292
296 303 301 293 295 295 296 296 294 292 290 289 287 286 285 284 285 284 284 281 279 284 282 282 284 284 285 286 288 290 291 291 291 292 292 292 292 291
296 294 293 295 294 295 294 294 293 295 295 293 289 288 285 285 285 284 284 284 283 282 282 281 283 282 285 284 288 289 290 290 290 290 290 290 290 290
294 293 293 292 292 291 290 288 288 289 290 288 291 288 287 287 287 286 285 281 279 280 282 280 280 281 282 283 287 288 288 289 289 289 289 289 289 289
289 291 290 291 290 292 289 286 285 286 291 290 290 290 289 288 286 284 282 282 279 278 278 281 277 279 278 278 281 285 286 287 288 288 288 288 288 288
286 287 287 289 291 291 288 286 283 283 284 284 285 287 286 286 287 286 284 283 282 279 279 279 277 278 277 277 277 276 277 280 282 284 284 285 285 280
285 285 287 291 290 290 289 286 284 285 285 282 282 282 282 281 282 283 283 284 282 281 278 279 276 274 275 275 275 276 276 276 276 277 281 282 282 281
285 286 288 290 290 289 286 288 287 285 283 282 281 281 280 280 280 280 280 280 279 279 279 279 277 275 275 276 275 275 274 275 274 273 274 278 279 279
286 287 288 288 288 287 287 286 284 283 283 281 280 279 279 279 279 278 278 278 278 278 278 277 276 277 277 276 275 273 275 273 273 272 272 271 271 270
286 285 285 285 285 283 282 283 283 283 282 281 279 279 280 281 280 281 280 279 279 279 276 276 277 277 275 274 273 273 272 270 271 271 271 269 269 270
284 284 282 281 281 281 282 283 283 283 282 282 281 280 280 280 279 279 279 278 277 277 277 275 272 271 271 270 269 269 269 270 270 268 266 266 266 268
283 281 280 281 280 279 279 278 279 280 280 280 280 279 278 278 277 277 278 277 276 275 274 272 271 269 268 268 273 267 266 267 267 266 263 264 265 265
280 280 279 279 279 278 278 277 276 278 279 278 277 277 277 276 275 273 274 273 271 270 269 267 265 263 259 259 265 273 264 263 263 261 262 262 263 265
280 279 279 279 278 277 276 275 274 273 272 271 270 270 271 271 268 267 266 264 264 263 262 263 263 261 257 257 258 261 270 262 260 259 262 263 265 270
277 276 276 275 274 273 271 270 269 269 268 267 267 267 267 266 265 264 261 260 262 260 259 259 260 262 257 258 257 258 260 269 267 262 263 262 261 263
273 271 271 270 270 269 269 269 268 267 266 265 265 265 265 264 263 262 261 260 258 258 258 259 259 258 257 257 256 256 259 260 266 268 269 268 262 260
269 268 268 268 268 268 267 266 265 264 264 264 263 263 263 262 261 261 258 257 256 256 256 255 257 258 256 257 256 255 256 257 258 260 262 268 269 270
Wind_Speed
15 15 12 10 11 11 13 12 9 9 9 8 5 10 8 8 8 12 13 19 23 22 21 22 21 20 18 17 16 16 15 15 15 15 16 15 16 16
12 16 15 12 13 10 9 11 11 10 9 5 6 6 12 8 10 12 11 15 20 20 20 20 21 20 19 18 17 17 16 16 16 17 17 17 16 16
16 16 17 16 12 13 12 10 10 7 7 1 2 3 12 12 10 10 9 11 11 20 22 21 21 20 19 18 18 17 17 17 17 18 18 18 17 18
18 17 17 12 14 14 11 15 14 11 6 9 3 4 6 12 11 13 9 8 9 17 19 20 20 20 19 18 19 18 18 17 18 18 18 18 18 18
18 18 16 16 14 11 11 12 11 8 7 6 4 3 3 10 9 8 9 8 5 12 21 20 19 20 19 19 18 18 17 17 18 18 18 18 19 19
16 17 17 17 17 15 13 12 10 9 6 7 4 6 4 6 8 10 8 8 9 4 11 11 16 18 19 19 18 18 17 18 20 20 20 20 20 20
10 14 15 13 16 15 11 12 12 10 8 8 5 5 4 8 15 10 9 7 4 4 5 4 7 7 9 18 15 15 18 21 22 22 20 21 22 21
9 12 8 12 15 18 16 17 19 15 12 10 8 11 11 10 9 10 9 8 5 6 8 7 8 8 9 8 16 20 22 23 23 23 22 22 22 21
9 7 8 6 10 11 11 15 16 20 20 14 14 13 11 15 13 12 8 7 3 6 7 6 8 9 7 8 19 21 22 21 20 20 20 20 20 20
9 11 11 10 10 12 11 8 6 5 6 3 7 6 5 11 12 6 9 7 7 4 3 4 3 6 4 4 16 17 17 17 17 17 17 18 18 20
5 9 10 10 16 20 13 13 10 8 11 16 17 19 23 23 14 10 8 9 3 2 3 1 2 1 2 2 4 9 10 12 12 12 13 15 17 18
8 8 10 9 19 21 15 14 12 9 14 12 9 15 15 17 14 5 9 8 5 3 5 4 3 2 2 1 0 1 1 2 4 8 10 12 13 4
7 6 6 20 20 19 18 11 14 12 17 13 11 9 9 9 6 5 4 5 3 3 4 3 2 2 1 1 1 2 3 2 1 3 8 12 13 12
8 7 9 21 21 22 16 25 22 15 9 9 10 8 8 7 5 6 7 8 7 7 7 3 3 2 3 1 2 1 1 2 2 1 1 6 11 12
9 16 22 22 24 21 23 21 14 9 8 8 9 7 5 6 6 5 7 7 7 6 4 3 3 2 2 2 3 2 4 2 2 1 1 1 1 1
18 14 19 20 22 17 13 12 7 7 7 8 8 7 6 6 7 4 5 4 4 4 4 3 2 1 1 1 1 2 1 2 0 2 1 2 2 2
14 11 11 11 12 10 9 9 7 7 9 7 8 7 7 6 6 4 4 4 3 2 3 3 2 3 1 1 2 2 3 2 2 2 3 3 2 4
12 12 11 10 8 7 8 8 8 9 8 7 8 7 6 6 6 5 5 4 3 4 5 5 5 4 4 3 8 1 2 2 3 4 3 6 6 4
12 10 9 8 8 8 8 8 9 8 8 8 8 7 7 6 8 6 5 5 6 6 6 5 3 2 2 1 4 8 4 3 3 3 3 3 8 8
10 9 9 8 8 8 8 8 7 7 8 7 8 7 7 7 6 6 6 5 4 2 2 2 4 4 2 2 3 4 15 2 1 3 6 5 8 20
8 9 8 7 7 7 7 8 9 8 7 8 7 6 5 6 6 6 5 5 4 3 3 3 2 2 2 2 1 4 4 13 9 4 7 7 7 7
7 8 7 7 7 8 7 7 7 7 7 6 6 6 6 6 6 6 5 4 3 2 2 3 2 2 2 1 3 5 5 4 11 18 18 13 5 7
7 7 7 7 6 6 6 7 7 7 6 6 6 6 5 6 4 4 3 3 3 2 2 2 2 3 2 2 3 4 7 5 3 6 10 17 18 19
Wind_Direction
210 202 193 186 194 198 195 181 162 174 205 195 166 192 180 173 171 179 177 179 178 188 193 197 199 203 205 210 217 223 225 231 235 237 239 244 251 254
219 199 198 181 185 178 189 189 179 184 198 164 187 171 178 175 172 181 179 175 180 188 196 198 201 205 209 213 220 226 228 234 239 243 249 251 256 261
221 206 199 199 187 190 187 185 195 193 169 62 123 143 181 171 174 185 170 178 185 191 196 198 200 205 211 216 223 229 233 237 243 247 251 255 260 263
223 212 200 194 188 183 184 189 198 191 153 158 154 149 185 187 169 179 177 183 183 197 194 198 203 210 212 218 225 232 238 240 245 251 255 259 264 268
235 213 198 188 187 180 180 186 191 180 180 147 143 138 111 176 160 172 176 175 157 179 198 204 208 215 216 224 229 237 240 243 247 249 254 257 262 265
246 220 201 186 185 178 179 184 181 168 162 166 140 161 149 158 169 160 174 176 170 155 200 199 220 217 221 228 236 240 240 243 246 249 249 251 254 260
271 231 195 184 167 172 175 179 165 168 171 164 150 140 149 169 180 172 177 170 158 157 165 188 214 206 226 236 240 237 241 246 247 248 248 253 255 259
251 236 152 146 164 171 177 173 177 173 177 178 180 179 182 175 169 172 157 151 177 174 170 191 197 212 218 221 229 234 240 244 246 250 254 255 260 262
253 145 123 145 159 168 172 177 191 188 182 185 180 183 167 172 163 161 172 165 132 147 152 186 184 222 222 225 228 236 243 248 251 253 254 257 261 266
191 137 138 143 149 141 137 124 111 130 154 144 186 151 112 154 159 150 140 104 75 77 150 176 155 217 196 211 232 244 249 252 253 255 259 264 265 267
125 118 130 138 148 144 137 121 105 88 105 110 119 123 131 129 124 118 132 138 99 143 195 156 151 143 173 230 220 243 255 257 258 264 270 274 278 279
79 82 108 134 144 142 134 133 117 123 108 95 98 105 109 117 116 118 141 146 118 136 178 166 149 168 232 152 180 188 207 254 276 279 284 286 284 281
97 94 114 133 131 128 126 127 124 122 117 109 104 97 86 81 74 75 79 127 130 97 175 119 110 145 354 353 186 203 173 214 213 287 297 300 296 291
99 105 114 116 114 113 109 118 114 109 104 106 105 98 98 94 85 73 64 70 56 87 143 70 97 140 172 207 235 113 183 196 186 222 17 307 305 308
94 99 104 104 102 99 100 101 103 101 111 108 97 88 80 99 107 84 75 84 82 86 86 77 67 121 170 255 299 326 309 351 341 349 309 349 332 345
91 87 90 91 87 82 77 75 82 89 96 97 99 102 113 100 82 72 94 94 84 99 71 102 91 56 284 276 305 309 325 287 77 287 344 338 327 303
99 89 84 81 77 80 81 82 86 87 88 94 99 99 90 88 84 75 64 78 70 83 105 123 100 94 119 83 328 285 285 293 335 348 13 315 304 286
83 85 81 83 92 91 86 77 65 69 71 80 83 90 101 88 91 81 74 71 74 59 60 41 18 6 5 290 205 279 334 11 13 354 332 304 301 290
83 81 81 79 79 76 75 75 79 67 72 71 72 79 77 63 68 63 59 45 53 40 41 30 16 37 16 320 319 67 26 344 327 313 296 294 296 298
69 80 83 79 79 82 87 85 83 78 73 73 66 60 56 70 71 65 51 48 57 53 55 34 41 29 42 333 332 303 317 278 284 291 297 291 288 298
81 81 78 81 81 80 74 67 63 65 67 70 66 70 78 93 92 104 95 69 72 37 42 31 58 12 268 321 308 288 303 314 303 292 297 284 289 296
73 75 67 66 68 73 79 86 89 84 86 91 90 84 80 84 84 72 48 70 50 42 35 339 359 19 330 330 301 311 308 313 314 312 317 320 304 299
70 73 73 73 75 82 86 87 89 90 89 90 84 73 73 81 73 80 93 78 56 40 65 335 338 350 295 247 257 275 295 301 303 313 316 330 336 328